星链-5001 (STARLINK-5001 )

导读

STARLINK-5001是美国太空探索技术公司(SpaceX)星链(Starlink)互联网星座中的一员,于2022年9月24日发射入轨,隶属于第二代星链卫星。星链项目旨在通过近地轨道卫星群提供全球覆盖的高速互联网服务,该卫星承担着拓展星座网络覆盖、提升全球网络服务容量与稳定性的任务。

基本信息
目录编号:
53924
目录名称:
STARLINK-5001
国际标识:
2022-119AQ
轨道中心:
EARTH
卫星名称:
星链-5001
卫星全名:
星链-5001 (STARLINK-5001 )
卫星状态:
在轨 (已飞行1441 天)
发射日期:
2022-09-24 UTC
国别 :
美国 (US)
星等 :
--
轨道信息
数据来源 国际轨道数据 AOE轨道数据
星历时间 2026-09-02T12:58:14+0800
1天前
查看轨道信息
2026-08-28T23:00:00+0800
6天前
查看轨道信息
半长轴 6864.387km 6864.336km
偏心率 0.0001286 0.0000414
轨道倾角 53.162° 53.162°
近地点辐角 94.486° 21.115°
升交点赤经 215.495° 236.656°
平近点角 265.629° 344.260°
近地点 485.367km 485.914km
远地点 487.133km 486.484km
周期 94.333分钟 94.332分钟
每日圈数 15.265118 15.265287
详细信息
固有亮度:
5
最大亮度:
2.5
卫星平台:
Starlink v1.5
覆盖范围:
全球
运营商:
太空探索技术公司
运营商所在国:
美国
制造商(研发单位):
太空探索技术公司
制造商所在国:
美国
使用方式:
暂无
卫星简介
星链(Starlink)计划是由太空探索技术公司(SpaceX)提出的一个巨型低轨卫星互联网星座项目,计划在2019年至2024年间在太空搭建由约1.2万颗卫星组成的“星链”网络,其中1584颗将部署在地球上空550千米处的近地轨道,并从2020年开始工作。该卫星仍在工作。
2D轨道图
3D轨道图
轨道高度分析图
轨道倾角分析图
轨道综合分析图
查看轨道综合分析图
交会数据列表
事件ID 空间交会对象 最接近时刻(TCA) 交会距离 交会风险概率(CRP) 交会风险指数(CRI) 操作
CDM_260904-060405-392406-387821
2026-09-04T
06:04:16+0000
1.837 km
极远距离
2.262685E-6 低风险 0.42
CDM_260904-213705-392405-969621
2026-09-04T
21:37:49+0000
2.534 km
极远距离
1.106354E-6 低风险 0.36
CDM_260829-175605-392405-761122
2026-08-29T
17:56:40+0000
2.748 km
极远距离
7.907056E-7 极低风险 0.33